CW6344 Weather Reports


time (UTC)temp
C
wind
direction
speed
KPH
gust
KPH
rain 1hr
cm
rain 24hr
cm
rain mn
cm
humidity
%
barometer
mb
20260902192439 25 331 0.0 0.0 0.05 0.05 0.05 88 1018.0
20260902191439 24 331 0.0 0.0 0.05 0.05 0.05 87 1018.3
20260902190439 25 331 0.0 0.0 0.05 0.05 0.05 83 1018.4
20260902185439 27 298 1.6 4.8 0.00 0.00 0.00 79 1019.1
20260902184439 28 138 3.2 4.8 0.00 0.00 0.00 80 1019.5
20260902183439 28 320 0.0 0.0 0.00 0.00 0.00 81 1018.9
20260902182439 28 320 0.0 1.6 0.00 0.00 0.00 78 1018.9
20260902181439 29 320 0.0 0.0 0.00 0.00 0.00 80 1018.8
20260902180439 29 342 0.0 3.2 0.00 0.00 0.00 78 1018.6
20260902175439 29 225 0.0 0.0 0.00 0.00 0.00 79 1018.6
20260902174439 28 150 0.0 0.0 0.00 0.00 0.00 78 1018.5
20260902173439 29 80 0.0 1.6 0.00 0.00 0.00 78 1018.3
20260902172439 28 160 1.6 4.8 0.00 0.00 0.00 78 1018.4
20260902171439 28 108 0.0 4.8 0.00 0.00 0.00 78 1018.4
20260902170439 28 63 0.0 4.8 0.00 0.00 0.00 77 1018.2
20260902164439 28 111 0.0 3.2 0.00 0.00 0.00 79 1018.0
20260902162439 28 226 1.6 3.2 0.00 0.00 0.00 79 1018.2
20260902161439 28 226 0.0 1.6 0.00 0.00 0.00 79 1018.2
20260902160439 28 25 0.0 0.0 0.00 0.00 0.00 80 1018.3
20260902155439 28 19 0.0 1.6 0.00 0.00 0.00 81 1018.1
20260902154439 27 15 3.2 3.2 0.00 0.00 0.00 81 1018.2
20260902153439 27 52 0.0 3.2 0.00 0.00 0.00 81 1018.2
20260902152439 27 36 0.0 3.2 0.00 0.00 0.00 81 1018.2
20260902151439 27 55 1.6 3.2 0.00 0.00 0.00 82 1018.2
20260902150439 27 64 1.6 1.6 0.00 0.00 0.00 82 1018.2
20260902145439 27 55 3.2 3.2 0.00 0.00 0.00 82 1018.3
20260902144439 26 82 3.2 3.2 0.00 0.00 0.00 82 1018.2
20260902143439 27 57 0.0 4.8 0.00 0.00 0.00 83 1018.1
20260902142439 26 35 0.0 3.2 0.00 0.00 0.00 83 1018.0
20260902141439 26 69 1.6 3.2 0.00 0.00 0.00 83 1018.1
20260902140439 26 186 0.0 1.6 0.00 0.00 0.00 84 1018.0
20260902135439 26 186 0.0 1.6 0.00 0.00 0.00 84 1018.1
20260902134439 26 284 0.0 0.0 0.00 0.00 0.00 84 1017.9
20260902133439 26 336 1.6 3.2 0.00 0.00 0.00 84 1017.8
20260902132439 26 350 0.0 0.0 0.00 0.00 0.00 86 1017.6
20260902130439 26 347 0.0 0.0 0.00 0.00 0.00 87 1017.5
20260902125439 26 347 0.0 1.6 0.00 0.00 0.00 87 1017.5
20260902124439 26 348 0.0 0.0 0.00 0.00 0.00 88 1017.4
20260902123439 26 348 0.0 0.0 0.00 0.00 0.00 88 1017.5
20260902122439 26 343 0.0 0.0 0.00 0.00 0.00 90 1017.5
20260902121439 26 343 0.0 0.0 0.00 0.00 0.00 90 1017.4
20260902120509 25 343 0.0 0.0 0.00 0.00 0.00 91 1017.4
20260902115439 25 343 0.0 0.0 0.00 0.00 0.00 92 1017.3
20260902114439 25 343 0.0 0.0 0.00 0.00 0.00 92 1017.3
20260902113439 25 343 0.0 0.0 0.00 0.00 0.00 92 1017.3
20260902112439 25 343 0.0 0.0 0.00 0.00 0.00 92 1017.2
20260902111439 24 138 0.0 0.0 0.00 0.00 0.00 92 1017.1
20260902110439 24 138 0.0 0.0 0.00 0.00 0.00 92 1017.0
20260902105439 24 292 0.0 0.0 0.00 0.00 0.00 92 1016.9
20260902104439 24 231 0.0 0.0 0.00 0.00 0.00 92 1016.8
20260902103439 24 32 0.0 0.0 0.00 0.00 0.00 92 1016.9
20260902102439 24 32 0.0 0.0 0.00 0.00 0.00 92 1016.8
20260902101439 24 32 0.0 0.0 0.00 0.00 0.00 92 1016.6
20260902100439 24 32 0.0 0.0 0.00 0.00 0.00 92 1016.6
20260902094509 24 32 0.0 0.0 0.00 0.00 0.00 91 1016.5
20260902093439 24 32 0.0 0.0 0.00 0.00 0.00 91 1016.5
20260902092439 24 32 0.0 0.0 0.00 0.00 0.00 91 1016.5
20260902090439 25 32 0.0 0.0 0.00 0.00 0.00 91 1016.6
20260902085439 25 32 0.0 0.0 0.00 0.00 0.00 90 1016.5
20260902084439 25 32 0.0 0.0 0.00 0.00 0.00 90 1016.5
20260902083439 25 32 0.0 0.0 0.00 0.00 0.00 89 1016.4
20260902082439 25 32 0.0 0.0 0.00 0.00 0.00 89 1016.3
20260902080439 25 32 0.0 0.0 0.00 0.00 0.00 88 1016.2
20260902075439 25 32 0.0 0.0 0.00 0.00 0.00 88 1016.2
20260902074439 25 32 0.0 0.0 0.00 0.00 0.00 87 1016.3
20260902073439 25 32 0.0 0.0 0.00 0.00 0.00 87 1016.2
20260902072439 25 32 0.0 0.0 0.00 0.00 0.00 87 1016.2
20260902071439 25 32 0.0 0.0 0.00 0.00 0.00 89 1016.3
20260902070439 25 360 0.0 0.0 0.00 0.00 0.00 88 1016.0
20260902064439 25 360 0.0 0.0 0.00 0.00 0.00 87 1016.0
20260902063439 25 360 0.0 0.0 0.00 0.00 0.00 87 1016.1
20260902062439 25 360 0.0 0.0 0.00 0.00 0.00 86 1016.1
20260902060509 26 360 0.0 0.0 0.00 0.00 0.00 85 1016.0
20260902055439 26 360 0.0 0.0 0.00 0.00 0.00 86 1015.9
20260902054439 26 360 0.0 0.0 0.00 0.00 0.00 86 1015.9
20260902052439 26 360 0.0 0.0 0.00 0.00 0.00 85 1015.8
20260902050440 26 360 0.0 0.0 0.00 0.00 0.00 83 1015.9
20260902044439 26 360 0.0 0.0 0.00 0.00 0.00 83 1015.8
20260902043440 26 360 0.0 0.0 0.00 0.00 0.00 84 1015.9
20260902042439 26 360 0.0 0.0 0.00 0.00 0.00 83 1015.9
20260902041439 26 360 0.0 0.0 0.00 0.00 0.00 84 1016.0
20260902040439 26 360 0.0 0.0 0.00 0.00 0.00 84 1015.9
20260902035440 26 360 0.0 0.0 0.00 0.00 0.00 83 1015.6
20260902034440 26 360 0.0 0.0 0.00 0.00 0.00 84 1015.4
20260902033440 26 360 0.0 0.0 0.00 0.00 0.00 84 1015.3
20260902032509 27 360 0.0 0.0 0.00 0.00 0.00 83 1015.3
20260902030440 27 360 0.0 0.0 0.00 0.00 0.00 83 1015.0
20260902025440 27 17 0.0 0.0 0.00 0.00 0.00 84 1015.0
20260902024440 27 17 0.0 0.0 0.00 0.00 0.00 82 1015.0
20260902023440 27 17 0.0 0.0 0.00 0.00 0.00 82 1015.1
20260902022510 27 17 0.0 0.0 0.00 0.00 0.00 84 1015.1
20260902021440 27 17 0.0 0.0 0.00 0.00 0.00 83 1015.0
20260902020440 27 17 0.0 0.0 0.00 0.00 0.00 84 1015.1
20260902015440 27 17 0.0 0.0 0.00 0.00 0.00 84 1014.9
20260902014440 27 17 0.0 0.0 0.00 0.00 0.00 84 1015.0
20260902012440 27 17 0.0 0.0 0.00 0.00 0.00 84 1014.9
20260902011440 27 17 0.0 0.0 0.00 0.00 0.00 83 1014.7
20260902010440 27 17 0.0 0.0 0.00 0.00 0.00 83 1014.7
20260902004440 28 17 0.0 0.0 0.00 0.00 0.00 81 1014.3
20260902003440 28 17 0.0 0.0 0.00 0.00 0.00 81 1013.9
20260902002540 28 17 0.0 0.0 0.00 0.00 0.00 80 1013.9
20260902000440 28 17 0.0 0.0 0.00 0.00 0.00 80 1013.9
20260901235440 28 17 0.0 0.0 0.00 0.00 0.00 79 1014.0
20260901234440 28 17 0.0 0.0 0.00 0.00 0.00 78 1014.0
20260901233440 28 17 0.0 0.0 0.00 0.00 0.00 78 1014.1
20260901232440 28 5 0.0 0.0 0.00 0.00 0.00 80 1014.1
20260901230440 28 207 0.0 0.0 0.00 0.00 0.00 78 1014.2
20260901225440 30 207 0.0 0.0 0.00 0.00 0.00 76 1014.2
20260901224440 30 207 0.0 0.0 0.00 0.00 0.00 74 1014.3
20260901223440 30 207 0.0 0.0 0.00 0.00 0.00 74 1014.5
20260901222440 30 207 0.0 0.0 0.00 0.00 0.00 76 1014.4
20260901221440 31 207 0.0 0.0 0.00 0.00 0.00 71 1014.4
20260901220440 31 207 0.0 0.0 0.00 0.00 0.00 70 1014.5
20260901214440 31 239 0.0 1.6 0.00 0.00 0.00 71 1014.7
20260901213440 32 256 0.0 0.0 0.00 0.00 0.00 70 1014.7
20260901212540 32 259 0.0 1.6 0.00 0.00 0.00 67 1014.7
20260901211440 32 224 0.0 3.2 0.00 0.00 0.00 65 1014.7
20260901210440 32 258 0.0 4.8 0.00 0.00 0.00 64 1014.7
20260901205440 32 259 0.0 3.2 0.00 0.00 0.00 66 1014.7
20260901204440 33 259 0.0 0.0 0.00 0.00 0.00 65 1014.8
20260901202440 32 242 0.0 1.6 0.00 0.00 0.00 68 1014.9
20260901201440 32 210 0.0 1.6 0.00 0.00 0.00 66 1015.0
20260901200510 31 261 0.0 0.0 0.00 0.00 0.00 70 1015.1
20260901195440 31 265 0.0 0.0 0.00 0.00 0.00 71 1015.2
20260901194440 33 265 0.0 3.2 0.00 0.00 0.00 65 1015.4